TimeEDT,TemperatureF,Dew PointF,Humidity,Sea Level PressureIn,VisibilityMPH,Wind Direction,Wind SpeedMPH,Gust SpeedMPH,PrecipitationIn,Events,Conditions,WindDirDegrees,DateUTC
12:17 AM,64.4,62.6,94,30.14,9.0,Calm,Calm,-,N/A,,Overcast,0,2013-05-19 04:17:00
12:32 AM,64.4,62.6,94,30.13,9.0,SE,4.6,-,N/A,,Overcast,130,2013-05-19 04:32:00
12:54 AM,63.0,62.1,97,30.08,10.0,SSE,3.5,-,N/A,,Overcast,160,2013-05-19 04:54:00
1:11 AM,62.6,62.6,100,30.13,9.0,South,3.5,-,N/A,,Overcast,180,2013-05-19 05:11:00
1:54 AM,63.0,62.1,97,30.06,8.0,Calm,Calm,-,N/A,,Overcast,0,2013-05-19 05:54:00
2:54 AM,63.0,62.1,97,30.06,7.0,SSE,4.6,-,N/A,,Overcast,150,2013-05-19 06:54:00
3:10 AM,62.6,62.6,100,30.11,6.0,South,3.5,-,N/A,,Overcast,180,2013-05-19 07:10:00
3:54 AM,63.0,62.1,97,30.05,8.0,Calm,Calm,-,N/A,,Overcast,0,2013-05-19 07:54:00
4:54 AM,63.0,62.1,97,30.06,8.0,SSE,3.5,-,N/A,,Overcast,150,2013-05-19 08:54:00
5:17 AM,62.6,60.8,94,30.12,9.0,Calm,Calm,-,N/A,,Overcast,0,2013-05-19 09:17:00
5:54 AM,63.0,61.0,93,30.06,8.0,Calm,Calm,-,N/A,,Overcast,0,2013-05-19 09:54:00
6:13 AM,62.6,62.6,100,30.13,7.0,Calm,Calm,-,N/A,,Overcast,0,2013-05-19 10:13:00
6:49 AM,62.6,62.6,100,30.14,3.0,South,3.5,-,0.00,Rain,Light Rain,190,2013-05-19 10:49:00
6:54 AM,63.0,62.1,97,30.09,2.5,South,3.5,-,0.00,Rain,Light Rain,190,2013-05-19 10:54:00
7:03 AM,62.6,62.6,100,30.15,1.2,Calm,Calm,-,0.01,Rain,Heavy Rain,0,2013-05-19 11:03:00
7:11 AM,62.6,62.6,100,30.14,0.5,Calm,Calm,-,0.12,Fog-Rain,Heavy Rain,0,2013-05-19 11:11:00
7:22 AM,62.6,62.6,100,30.14,1.0,SSE,4.6,-,0.24,Rain,Heavy Rain,160,2013-05-19 11:22:00
7:30 AM,62.6,62.6,100,30.14,1.0,SSE,4.6,-,0.28,Rain,Heavy Rain,160,2013-05-19 11:30:00
7:49 AM,62.6,62.6,100,30.15,1.0,South,3.5,-,0.32,Rain,Rain,190,2013-05-19 11:49:00
7:54 AM,62.6,62.6,100,30.15,1.0,SSE,3.5,-,N/A,Rain,Rain,160,2013-05-19 11:54:00
8:01 AM,62.6,62.6,100,30.16,1.5,South,4.6,-,0.01,Rain,Rain,170,2013-05-19 12:01:00
8:15 AM,62.6,62.6,100,30.15,2.0,SSE,6.9,-,0.02,Rain,Light Rain,160,2013-05-19 12:15:00
8:43 AM,62.6,62.6,100,30.16,2.0,South,3.5,-,0.02,,Overcast,170,2013-05-19 12:43:00
8:54 AM,63.0,63.0,100,30.11,2.0,South,4.6,-,0.02,,Overcast,170,2013-05-19 12:54:00
9:54 AM,66.0,63.0,90,30.09,2.0,SSE,4.6,-,N/A,,Overcast,150,2013-05-19 13:54:00
9:57 AM,66.2,62.6,88,30.15,10.0,SSE,4.6,-,N/A,,Overcast,160,2013-05-19 13:57:00
10:54 AM,69.1,64.0,84,30.08,10.0,South,8.1,-,N/A,,Partly Cloudy,170,2013-05-19 14:54:00
11:54 AM,73.0,62.1,68,30.07,10.0,SSE,8.1,-,N/A,,Scattered Clouds,160,2013-05-19 15:54:00
12:54 PM,73.9,63.0,68,30.04,10.0,SSE,12.7,17.3,0.01,,Scattered Clouds,160,2013-05-19 16:54:00
1:54 PM,72.0,63.0,73,30.05,10.0,South,13.8,-,N/A,,Mostly Cloudy,190,2013-05-19 17:54:00
2:01 PM,71.6,62.6,73,30.11,10.0,South,11.5,-,N/A,,Overcast,180,2013-05-19 18:01:00
2:17 PM,71.6,62.6,73,30.10,10.0,South,11.5,-,N/A,,Overcast,180,2013-05-19 18:17:00
2:27 PM,73.4,62.6,69,30.10,10.0,South,13.8,-,N/A,,Overcast,170,2013-05-19 18:27:00
2:54 PM,71.6,62.6,73,30.11,10.0,South,13.8,19.6,N/A,,Overcast,190,2013-05-19 18:54:00
3:04 PM,69.8,62.6,78,30.11,10.0,South,9.2,-,N/A,,Mostly Cloudy,190,2013-05-19 19:04:00
3:54 PM,71.1,63.0,75,30.04,10.0,SSW,9.2,-,N/A,,Scattered Clouds,200,2013-05-19 19:54:00
4:51 PM,69.8,62.6,78,30.10,10.0,South,9.2,-,N/A,,Overcast,170,2013-05-19 20:51:00
4:54 PM,70.0,63.0,78,30.04,10.0,SSW,5.8,-,N/A,,Overcast,200,2013-05-19 20:54:00
5:18 PM,69.8,62.6,78,30.08,10.0,South,4.6,-,0.00,Rain,Light Rain,170,2013-05-19 21:18:00
5:54 PM,70.0,62.1,76,30.01,10.0,WSW,3.5,-,0.00,,Scattered Clouds,250,2013-05-19 21:54:00
6:02 PM,69.8,62.6,78,30.08,10.0,WSW,4.6,-,N/A,,Mostly Cloudy,250,2013-05-19 22:02:00
6:27 PM,69.8,62.6,78,30.07,10.0,SSW,4.6,-,N/A,,Overcast,200,2013-05-19 22:27:00
6:54 PM,70.0,63.0,78,30.01,10.0,SE,4.6,-,N/A,,Scattered Clouds,140,2013-05-19 22:54:00
7:54 PM,69.1,62.1,78,30.04,10.0,SE,5.8,-,N/A,,Overcast,130,2013-05-19 23:54:00
8:54 PM,66.9,63.0,87,30.05,10.0,Calm,Calm,-,N/A,,Mostly Cloudy,0,2013-05-20 00:54:00
9:33 PM,66.2,62.6,88,30.11,10.0,Calm,Calm,-,N/A,,Scattered Clouds,0,2013-05-20 01:33:00
9:54 PM,64.9,63.0,93,30.06,10.0,Calm,Calm,-,N/A,,Clear,0,2013-05-20 01:54:00
10:54 PM,63.0,62.1,97,30.08,10.0,Calm,Calm,-,N/A,,Clear,0,2013-05-20 02:54:00
11:22 PM,64.4,62.6,94,30.13,9.0,Calm,Calm,-,N/A,,Mostly Cloudy,0,2013-05-20 03:22:00
11:31 PM,62.6,62.6,100,30.13,9.0,Calm,Calm,-,N/A,,Scattered Clouds,0,2013-05-20 03:31:00
11:54 PM,63.0,61.0,93,30.06,9.0,Calm,Calm,-,N/A,,Clear,0,2013-05-20 03:54:00